Weather History for KFAY - February, 2014

Change the Weather History Date:

Sunday, February 16, 2014

  Actual Average Record
Temperature  
Mean Temperature 44 °F 47 °F  
Max Temperature 55 °F 59 °F 82 °F (1989)
Min Temperature 33 °F 35 °F 17 °F (1991)
Degree Days  
Heating Degree Days 21 18  
Month to date heating degree days 356 303  
Since 1 July heating degree days 2147 2029  
Cooling Degree Days 0 0  
Month to date cooling degree days 0 0  
Year to date cooling degree days 0 2  
Moisture  
Dew Point 22 °F    
Average Humidity 51    
Maximum Humidity 75    
Minimum Humidity 26    
Precipitation  
Precipitation T in 0.11 in 1.62 in (1922)
Month to date precipitation 1.58 1.52  
Year to date precipitation 5.64 4.82  
Sea Level Pressure  
Sea Level Pressure 30.08 in    
Wind  
Wind Speed 6 mph (WSW)    
Max Wind Speed 16 mph    
Max Gust Speed 27 mph    
Visibility 10 miles    
Events Snow    
T = Trace of Precipitation, MM = Missing Value Source: NWS Daily Summary

Daily Weather History Graph

Daily Weather History Graph

Search for Another Location

Airport or City:

Trip Planner

Search our weather history database for the weather conditions in past years. The results will help you decide how hot, cold, wet, or windy it might be!

Date:

Astronomy

Feb. 16, 2014 Rise Set
Actual Time 7:00 AM EST 5:59 PM EST
Civil Twilight 6:34 AM EST 6:25 PM EST
Nautical Twilight 6:04 AM EST 6:54 PM EST
Astronomical Twilight 5:35 AM EST 7:24 PM EST
Moon 7:48 PM EST (2/16) 7:34 AM EST (2/16)
Length of Visible Light 11h 50m
Length of Day
10h 58m
Full, 97% of the Moon is Illuminated
Feb 16
Full
Feb 22
Last Quarter
Mar 1
New
Mar 8
First Quarter
Mar 16
Full

Hourly Weather History & Observations

Time (EST) Temp. Windchill Dew Point Humidity Pressure Visibility Wind Dir Wind Speed Gust Speed Precip Events Conditions
12:53 AM 35.1 °F 32.2 °F 14.0 °F 42% 30.04 in 10.0 mi NNW 3.5 mph - N/A   Mostly Cloudy
1:53 AM 35.1 °F 31.0 °F 14.0 °F 42% 30.06 in 10.0 mi NNW 4.6 mph - N/A   Mostly Cloudy
2:53 AM 34.0 °F 31.0 °F 16.0 °F 48% 30.04 in 10.0 mi North 3.5 mph - N/A   Scattered Clouds
3:53 AM 33.1 °F - 21.0 °F 61% 30.05 in 10.0 mi Calm Calm - N/A   Overcast
4:53 AM 34.0 °F - 18.0 °F 52% 30.06 in 10.0 mi Calm Calm - N/A   Overcast
5:53 AM 34.0 °F 28.8 °F 19.0 °F 54% 30.09 in 10.0 mi NW 5.8 mph - N/A   Overcast
6:53 AM 34.0 °F 25.0 °F 21.0 °F 59% 30.06 in 10.0 mi NNE 12.7 mph - N/A   Overcast
7:53 AM 35.1 °F 29.3 °F 18.0 °F 50% 30.11 in 10.0 mi South 6.9 mph - N/A   Overcast
8:21 AM 35.1 °F 27.9 °F 19.9 °F 54% 30.14 in 9.0 mi SSW 9.2 mph - N/A   Overcast
8:49 AM 33.8 °F 27.7 °F 24.8 °F 70% 30.13 in 6.0 mi South 6.9 mph - 0.00 in Snow Light Snow
8:53 AM 35.1 °F 29.3 °F 24.1 °F 64% 30.12 in 8.0 mi South 6.9 mph - 0.00 in   Overcast
9:53 AM 39.0 °F 36.8 °F 21.0 °F 49% 30.13 in 10.0 mi South 3.5 mph - N/A   Scattered Clouds
10:53 AM 43.0 °F 39.5 °F 24.1 °F 47% 30.12 in 10.0 mi SW 5.8 mph - N/A   Clear
11:53 AM 46.9 °F - 26.1 °F 44% 30.10 in 10.0 mi WSW 8.1 mph - N/A   Clear
12:53 PM 50.0 °F - 25.0 °F 38% 30.07 in 10.0 mi SW 12.7 mph 17.3 mph N/A   Clear
1:53 PM 53.1 °F - 23.0 °F 31% 30.05 in 10.0 mi SW 15.0 mph 19.6 mph N/A   Clear
2:53 PM 54.0 °F - 21.9 °F 29% 30.03 in 10.0 mi West 11.5 mph - N/A   Clear
3:53 PM 55.0 °F - 21.0 °F 27% 30.03 in 10.0 mi West 9.2 mph - N/A   Clear
4:53 PM 55.0 °F - 21.9 °F 28% 30.03 in 10.0 mi WSW 11.5 mph - N/A   Clear
5:53 PM 51.1 °F - 24.1 °F 35% 30.05 in 10.0 mi SW 8.1 mph - N/A   Clear
6:53 PM 48.9 °F - 24.1 °F 38% 30.06 in 10.0 mi Calm Calm - N/A   Clear
7:53 PM 42.1 °F 40.2 °F 28.0 °F 58% 30.07 in 10.0 mi SSW 3.5 mph - N/A   Clear
8:53 PM 37.9 °F 34.4 °F 28.9 °F 70% 30.09 in 10.0 mi SSW 4.6 mph - N/A   Clear
9:53 PM 35.1 °F 31.0 °F 28.0 °F 76% 30.10 in 10.0 mi South 4.6 mph - N/A   Clear
10:53 PM 33.1 °F 26.9 °F 27.0 °F 78% 30.12 in 10.0 mi NNE 6.9 mph - N/A   Clear
11:53 PM 36.0 °F 31.1 °F 27.0 °F 70% 30.14 in 10.0 mi North 5.8 mph - N/A   Clear